Jackson, MN

11:42 AM CST on February 21, 2017 (GMT -0600)
Jackson Municipal

Weather History for KMJQ - December, 2013

Change the Weather History Date:

Thursday, December 12, 2013

  Actual Average Record
Temperature  
Mean Temperature 18 °F -  
Max Temperature 26 °F 30 °F 51 °F (1998)
Min Temperature 10 °F 16 °F -11 °F (2000)
Degree Days  
Heating Degree Days 47    
Moisture  
Dew Point 12 °F    
Average Humidity 77    
Maximum Humidity 86    
Minimum Humidity 68    
Precipitation  
Precipitation 0.00 in - - ()
Sea Level Pressure  
Sea Level Pressure 30.17 in    
Wind  
Wind Speed 12 mph (SW)    
Max Wind Speed 25 mph    
Max Gust Speed 32 mph    
Visibility 10 miles    
Events      
Averages and records for this station are not official NWS values.
T = Trace of Precipitation, MM = Missing Value Source: NWS Daily Summary

Daily Weather History Graph

Daily Weather History Graph

Search for Another Location

Airport or City:

Trip Planner

Search our weather history database for the weather conditions in past years. The results will help you decide how hot, cold, wet, or windy it might be!

Date:

Astronomy

Dec. 12, 2013 Rise Set
Actual Time 7:44 AM CST 4:43 PM CST
Civil Twilight 7:11 AM CST 5:15 PM CST
Nautical Twilight 6:35 AM CST 5:52 PM CST
Astronomical Twilight 6:00 AM CST 6:27 PM CST
Moon 1:56 PM CST (12/12) 3:01 AM CST (12/12)
Length of Visible Light 10h 04m
Length of Day
8h 58m
Waxing Gibbous, 80% of the Moon is Illuminated
Dec 12
Waxing Gibbous
Dec 17
Full
Dec 25
Last Quarter
Jan 1
New
Jan 7
First Quarter

Hourly Weather History & Observations

Time (CST) Temp. Windchill Dew Point Humidity Pressure Visibility Wind Dir Wind Speed Gust Speed Precip Events Conditions
12:13 AM 10.4 °F -9.1 °F 3.2 °F 73% 30.24 in 4.0 mi SW 21.9 mph 29.9 mph N/A   Haze
12:33 AM 10.4 °F -9.5 °F 3.2 °F 73% 30.23 in 5.0 mi SW 23.0 mph 31.1 mph N/A   Haze
12:53 AM 10.4 °F -9.5 °F 3.2 °F 73% 30.22 in 7.0 mi SW 23.0 mph 28.8 mph N/A   Mostly Cloudy
1:13 AM 10.4 °F -10.3 °F 5.0 °F 79% 30.21 in 4.0 mi SW 25.3 mph 32.2 mph N/A   Haze
1:33 AM 10.4 °F -8.6 °F 5.0 °F 79% 30.20 in 7.0 mi SW 20.7 mph 28.8 mph N/A   Scattered Clouds
1:53 AM 10.4 °F -9.5 °F 5.0 °F 79% 30.20 in 7.0 mi SW 23.0 mph 29.9 mph N/A   Clear
2:13 AM 10.4 °F -8.2 °F 5.0 °F 79% 30.20 in 10.0 mi SW 19.6 mph 28.8 mph N/A   Clear
2:33 AM 12.2 °F -4.3 °F 5.0 °F 73% 30.21 in 10.0 mi SW 16.1 mph - N/A   Clear
2:54 AM 12.2 °F -4.3 °F 6.8 °F 79% 30.20 in 10.0 mi WSW 16.1 mph 24.2 mph N/A   Clear
3:13 AM 12.2 °F -3.7 °F 6.8 °F 79% 30.21 in 10.0 mi WSW 15.0 mph - N/A   Clear
3:33 AM 12.2 °F -3.7 °F 6.8 °F 79% 30.21 in 10.0 mi WSW 15.0 mph - N/A   Clear
3:53 AM 14.0 °F -1.4 °F 6.8 °F 73% 30.22 in 10.0 mi WSW 15.0 mph 21.9 mph N/A   Clear
4:13 AM 14.0 °F -1.4 °F 6.8 °F 73% 30.21 in 10.0 mi WSW 15.0 mph 19.6 mph N/A   Clear
4:33 AM 14.0 °F -1.4 °F 8.6 °F 79% 30.21 in 10.0 mi WSW 15.0 mph - N/A   Clear
4:53 AM 14.0 °F -0.8 °F 8.6 °F 79% 30.21 in 10.0 mi WSW 13.8 mph - N/A   Clear
5:13 AM 14.0 °F -0.2 °F 8.6 °F 79% 30.22 in 10.0 mi West 12.7 mph - N/A   Clear
5:33 AM 14.0 °F 0.5 °F 8.6 °F 79% 30.22 in 10.0 mi West 11.5 mph - N/A   Clear
5:53 AM 14.0 °F 1.2 °F 8.6 °F 79% 30.22 in 10.0 mi West 10.4 mph - N/A   Clear
6:13 AM 12.2 °F 1.7 °F 8.6 °F 85% 30.22 in 10.0 mi West 6.9 mph - N/A   Clear
6:33 AM 14.0 °F 5.1 °F 8.6 °F 79% 30.22 in 10.0 mi West 5.8 mph - N/A   Clear
6:53 AM 14.0 °F 2.0 °F 8.6 °F 79% 30.24 in 10.0 mi West 9.2 mph - N/A   Clear
7:13 AM 15.8 °F 6.1 °F 10.4 °F 79% 30.23 in 10.0 mi WNW 6.9 mph - N/A   Clear
7:33 AM 15.8 °F 10.2 °F 10.4 °F 79% 30.22 in 10.0 mi West 3.5 mph - N/A   Clear
7:53 AM 15.8 °F 8.6 °F 10.4 °F 79% 30.22 in 10.0 mi WSW 4.6 mph - N/A   Mostly Cloudy
8:13 AM 15.8 °F 6.1 °F 10.4 °F 79% 30.23 in 10.0 mi SW 6.9 mph - N/A   Overcast
8:33 AM 17.6 °F 10.7 °F 10.4 °F 73% 30.24 in 10.0 mi West 4.6 mph - N/A   Overcast
8:53 AM 17.6 °F 9.3 °F 10.4 °F 73% 30.24 in 10.0 mi West 5.8 mph - N/A   Overcast
9:13 AM 17.6 °F 8.2 °F 12.2 °F 79% 30.24 in 10.0 mi WSW 6.9 mph - N/A   Overcast
9:33 AM 17.6 °F 7.3 °F 12.2 °F 79% 30.25 in 10.0 mi WSW 8.1 mph - N/A   Overcast
9:54 AM 19.4 °F 12.8 °F 12.2 °F 74% 30.24 in 10.0 mi WNW 4.6 mph - N/A   Mostly Cloudy
10:13 AM 19.4 °F 11.5 °F 12.2 °F 74% 30.26 in 10.0 mi West 5.8 mph - N/A   Scattered Clouds
10:33 AM 19.4 °F - 12.2 °F 74% 30.25 in 10.0 mi Calm Calm - N/A   Clear
10:53 AM 19.4 °F - 12.2 °F 74% 30.25 in 10.0 mi Calm Calm - N/A   Clear
11:13 AM 21.2 °F - 12.2 °F 68% 30.24 in 10.0 mi Calm Calm - N/A   Clear
11:33 AM 21.2 °F - 12.2 °F 68% 30.24 in 10.0 mi Calm Calm - N/A   Scattered Clouds
11:53 AM 23.0 °F 14.7 °F 14.0 °F 68% 30.23 in 10.0 mi SW 6.9 mph - N/A   Mostly Cloudy
12:13 PM 23.0 °F 13.9 °F 14.0 °F 68% 30.22 in 10.0 mi SW 8.1 mph - N/A   Overcast
12:33 PM 23.0 °F 15.8 °F 14.0 °F 68% 30.22 in 10.0 mi WSW 5.8 mph - N/A   Overcast
12:53 PM 23.0 °F 14.7 °F 14.0 °F 68% 30.20 in 10.0 mi SW 6.9 mph - N/A   Overcast
1:13 PM 23.0 °F 17.0 °F 15.8 °F 74% 30.19 in 10.0 mi SW 4.6 mph - N/A   Overcast
1:33 PM 24.8 °F 16.1 °F 15.8 °F 69% 30.19 in 10.0 mi SSW 8.1 mph - N/A   Mostly Cloudy
1:53 PM 26.6 °F 17.5 °F 17.6 °F 69% 30.18 in 10.0 mi SW 9.2 mph - N/A   Scattered Clouds
2:13 PM 26.6 °F 16.8 °F 17.6 °F 69% 30.16 in 10.0 mi SW 10.4 mph - N/A   Scattered Clouds
2:33 PM 26.6 °F 16.8 °F 17.6 °F 69% 30.16 in 10.0 mi SW 10.4 mph - N/A   Clear
2:53 PM 26.6 °F 17.5 °F 17.6 °F 69% 30.16 in 10.0 mi SW 9.2 mph - N/A   Scattered Clouds
3:13 PM 26.6 °F 16.8 °F 17.6 °F 69% 30.15 in 10.0 mi SW 10.4 mph - N/A   Scattered Clouds
3:33 PM 26.6 °F 19.1 °F 17.6 °F 69% 30.16 in 10.0 mi SW 6.9 mph - N/A   Mostly Cloudy
3:53 PM 24.8 °F 14.6 °F 17.6 °F 74% 30.15 in 10.0 mi SW 10.4 mph - N/A   Mostly Cloudy
4:13 PM 23.0 °F 12.4 °F 17.6 °F 80% 30.14 in 10.0 mi SSW 10.4 mph - N/A   Scattered Clouds
4:33 PM 23.0 °F 15.8 °F 17.6 °F 80% 30.14 in 10.0 mi SSW 5.8 mph - N/A   Mostly Cloudy
4:53 PM 23.0 °F - 15.8 °F 74% 30.14 in 10.0 mi Calm Calm - N/A   Overcast
5:13 PM 23.0 °F - 17.6 °F 80% 30.13 in 10.0 mi Calm Calm - N/A   Overcast
5:33 PM 23.0 °F 18.4 °F 17.6 °F 80% 30.12 in 10.0 mi SSE 3.5 mph - N/A   Mostly Cloudy
5:53 PM 21.2 °F 10.9 °F 15.8 °F 80% 30.12 in 10.0 mi SSW 9.2 mph - N/A   Overcast
6:13 PM 21.2 °F 11.7 °F 17.6 °F 86% 30.12 in 10.0 mi SSW 8.1 mph - N/A   Scattered Clouds
6:33 PM 21.2 °F 10.1 °F 17.6 °F 86% 30.10 in 10.0 mi SSW 10.4 mph - N/A   Scattered Clouds
6:53 PM 21.2 °F 10.1 °F 17.6 °F 86% 30.10 in 10.0 mi SSW 10.4 mph - N/A   Scattered Clouds
7:13 PM 21.2 °F - 15.8 °F 80% 30.10 in 10.0 mi Calm Calm - N/A   Clear
7:33 PM 21.2 °F - 15.8 °F 80% 30.10 in 10.0 mi Calm Calm - N/A   Clear
7:53 PM 21.2 °F 10.9 °F 14.0 °F 74% 30.10 in 10.0 mi ENE 9.2 mph - N/A   Clear
8:13 PM 17.6 °F 12.3 °F 12.2 °F 79% 30.09 in 10.0 mi East 3.5 mph - N/A   Clear
8:33 PM 17.6 °F 12.3 °F 12.2 °F 79% 30.09 in 10.0 mi SE 3.5 mph - N/A   Clear
8:52 PM 15.8 °F 10.2 °F 12.2 °F 86% 30.08 in 10.0 mi SSE 3.5 mph - N/A   Clear
9:13 PM 15.8 °F - 12.2 °F 86% 30.07 in 10.0 mi Calm Calm - N/A   Clear
9:33 PM 15.8 °F - 12.2 °F 86% 30.07 in 10.0 mi Calm Calm - N/A   Clear
9:53 PM 15.8 °F 10.2 °F 12.2 °F 86% 30.07 in 10.0 mi SE 3.5 mph - N/A   Clear
10:13 PM 17.6 °F 10.7 °F 14.0 °F 86% 30.06 in 10.0 mi South 4.6 mph - N/A   Clear
10:33 PM 17.6 °F 12.3 °F 12.2 °F 79% 30.06 in 10.0 mi SSE 3.5 mph - N/A   Clear
10:53 PM 14.0 °F - 10.4 °F 86% 30.05 in 10.0 mi Calm Calm - N/A   Clear
11:13 PM 17.6 °F - 12.2 °F 79% 30.06 in 10.0 mi Calm Calm - N/A   Clear
11:33 PM 14.0 °F - 10.4 °F 86% 30.06 in 10.0 mi Calm Calm - N/A   Clear
11:53 PM 14.0 °F - 10.4 °F 86% 30.05 in 10.0 mi Calm Calm - N/A   Clear